Regional Weather Roundup
Issued by NWS Albany, NY

Current Version | Previous Version | Graphics & Text | Print | Product List | Glossary Off
Versions: 1 2 3 4 5 6 7 8 9 10 11 12 13 14 15 16 17 18 19 20 21 22 23 24 25 26 27

000
ASUS41 KALY 241610
RWRALY

NEW YORK STATE HOURLY WEATHER ROUNDUP
NATIONAL WEATHER SERVICE ALBANY NY
1100 AM EST FRI FEB 24 2017

NOTE: "FAIR" INDICATES FEW OR NO CLOUDS BELOW 12,000 FEET WITH NO
SIGNIFICANT WEATHER AND/OR NO OBSTRUCTIONS TO VISIBILITY.

NYZ032-033-038>043-046>054-057>066-NYZ062>081-082-084-241700-
EAST


CITY           SKY/WX    TMP DP  RH WIND       PRES   REMARKS
ALBANY         PTSUNNY   59  50  72 S12       29.87F
GLENS FALLS    CLOUDY    49  41  74 CALM      29.87F
POUGHKEEPSIE   SUNNY     64  52  64 S7        29.89F
NEWBURGH       MOSUNNY   66  55  68 SW6       29.92F
MONTGOMERY     SUNNY     68  54  60 SW15      29.88F
WHITE PLAINS   SUNNY     64  51  62 S10       29.94F
ISLIP          MOSUNNY   61  51  70 SW14      29.97F
NEW YORK CITY  MOSUNNY   68  53  58 S14       29.94F
CENTRAL PARK   SUNNY     67  54  63 S3        29.96F
$$

NYZ005>009-017-018-044>046-055-056-241700-
CENTRAL


CITY           SKY/WX    TMP DP  RH WIND       PRES   REMARKS
FULTON         LGT RAIN  45  43  93 SE5       29.80F FOG
SYRACUSE       CLOUDY    47  45  93 NE5       29.80F
ROME           CLOUDY    49  48  97 E8        29.84F
ELMIRA         PTSUNNY   63  50  62 CALM      29.79F
BINGHAMTON     PTSUNNY   62  51  67 S12       29.83F
MONTICELLO     SUNNY     59  55  88 SW6       29.92S
$$

NYZ026>034-041>043-087-241700-
NORTH


CITY           SKY/WX    TMP DP  RH WIND       PRES   REMARKS
WATERTOWN      CLOUDY    41  40  96 NE10      29.81F
FORT DRUM      NOT AVBL
OGDENSBURG     PTSUNNY   38  36  92 NE6       29.86F WCI  33
MASSENA        LGT RAIN  38  34  85 E8        29.89F WCI  32
SARANAC LAKE   LGT RAIN  41  41 100 NE6       29.81F FOG
PLATTSBURGH    CLOUDY    43  36  76 N6        29.89F
$$

NYZ001>004-010>016-019>021-085-241700-
WEST


CITY           SKY/WX    TMP DP  RH WIND       PRES   REMARKS
NIAGARA FALLS  CLOUDY    55  50  83 S3        29.69F
BUFFALO        PTSUNNY   61  56  83 S10       29.69F
DUNKIRK        SUNNY     66  56  70 S12       29.68F
JAMESTOWN        N/A     64  52  63 SW15G21   29.73F
WELLSVILLE     MOSUNNY   66  51  58 S15G24    29.79F
ROCHESTER      CLOUDY    47  46  97 SE7       29.74F FOG
PENN YAN       CLOUDY    56  49  77 VRB3      29.78F
$$

             KEY
       WCI = WIND CHILL INDEX
       VSB = VISIBILITY
       HX  = HEAT INDEX
$$




USA.gov is the U.S. government's official web portal to all federal, state and local government web resources and services.